TimeCDT,TemperatureF,Dew PointF,Humidity,Sea Level PressureIn,VisibilityMPH,Wind Direction,Wind SpeedMPH,Gust SpeedMPH,PrecipitationIn,Events,Conditions,WindDirDegrees,DateUTC
12:15 AM,61.2,55.2,81,29.91,10.0,East,4.6,-,N/A,,Scattered Clouds,100,2013-05-17 05:15:00
12:35 AM,60.4,55.4,83,29.91,10.0,ESE,6.9,-,N/A,,Scattered Clouds,120,2013-05-17 05:35:00
12:55 AM,60.4,55.2,83,29.91,10.0,SE,4.6,-,N/A,,Scattered Clouds,130,2013-05-17 05:55:00
1:15 AM,60.4,55.4,83,29.90,10.0,ESE,3.5,-,N/A,,Mostly Cloudy,120,2013-05-17 06:15:00
1:35 AM,60.3,55.6,85,29.90,10.0,SE,4.6,-,N/A,,Mostly Cloudy,130,2013-05-17 06:35:00
1:55 AM,60.6,56.1,85,29.90,10.0,SE,5.8,-,N/A,,Overcast,130,2013-05-17 06:55:00
2:15 AM,60.6,55.4,83,29.90,10.0,ESE,5.8,-,N/A,,Scattered Clouds,110,2013-05-17 07:15:00
2:35 AM,59.9,55.4,85,29.89,10.0,SE,4.6,-,N/A,,Clear,130,2013-05-17 07:35:00
2:55 AM,59.9,55.4,85,29.89,10.0,SE,3.5,-,N/A,,Scattered Clouds,140,2013-05-17 07:55:00
3:15 AM,59.4,56.3,90,29.89,10.0,Calm,Calm,-,N/A,,Mostly Cloudy,0,2013-05-17 08:15:00
3:35 AM,59.2,56.8,92,29.89,10.0,ESE,6.9,-,N/A,,Overcast,120,2013-05-17 08:35:00
3:55 AM,59.7,57.4,92,29.89,10.0,Calm,Calm,-,N/A,,Overcast,0,2013-05-17 08:55:00
4:15 AM,60.3,57.4,90,29.90,10.0,SE,4.6,-,N/A,,Overcast,140,2013-05-17 09:15:00
4:35 AM,60.8,57.9,90,29.89,10.0,ESE,4.6,-,N/A,,Overcast,120,2013-05-17 09:35:00
4:55 AM,61.3,58.1,89,29.89,10.0,ESE,5.8,-,N/A,,Overcast,120,2013-05-17 09:55:00
5:15 AM,61.5,57.7,87,29.90,10.0,Calm,Calm,-,N/A,,Overcast,0,2013-05-17 10:15:00
5:35 AM,61.7,57.9,87,29.91,10.0,ESE,3.5,-,N/A,,Overcast,120,2013-05-17 10:35:00
5:55 AM,62.1,58.3,87,29.91,10.0,Calm,Calm,-,N/A,,Overcast,0,2013-05-17 10:55:00
6:15 AM,61.9,58.8,90,29.92,10.0,Calm,Calm,-,N/A,,Overcast,0,2013-05-17 11:15:00
6:35 AM,61.9,59.0,90,29.92,10.0,NNE,4.6,-,N/A,,Overcast,20,2013-05-17 11:35:00
6:55 AM,62.2,59.0,89,29.92,10.0,ESE,4.6,-,N/A,,Overcast,120,2013-05-17 11:55:00
7:15 AM,62.6,59.0,88,29.93,10.0,SE,4.6,-,N/A,,Mostly Cloudy,130,2013-05-17 12:15:00
7:35 AM,63.1,59.0,86,29.94,10.0,Calm,Calm,-,N/A,,Overcast,0,2013-05-17 12:35:00
7:55 AM,63.7,59.5,86,29.95,10.0,Calm,Calm,-,N/A,,Overcast,0,2013-05-17 12:55:00
8:15 AM,63.9,59.9,87,29.95,10.0,Calm,Calm,-,N/A,,Overcast,0,2013-05-17 13:15:00
8:35 AM,64.2,60.4,87,29.96,10.0,Calm,Calm,-,N/A,,Overcast,0,2013-05-17 13:35:00
8:55 AM,64.6,61.0,88,29.96,10.0,Calm,Calm,-,N/A,,Overcast,0,2013-05-17 13:55:00
9:15 AM,65.1,61.3,88,29.96,10.0,Calm,Calm,-,N/A,,Overcast,0,2013-05-17 14:15:00
9:35 AM,65.7,61.3,86,29.96,10.0,Calm,Calm,-,N/A,,Overcast,0,2013-05-17 14:35:00
9:55 AM,67.3,60.8,80,29.95,10.0,Calm,Calm,-,N/A,,Overcast,0,2013-05-17 14:55:00
10:15 AM,68.5,61.0,77,29.95,10.0,Calm,Calm,-,N/A,,Overcast,0,2013-05-17 15:15:00
10:35 AM,69.4,61.0,74,29.95,10.0,East,3.5,-,N/A,,Overcast,100,2013-05-17 15:35:00
10:55 AM,71.6,60.6,68,29.96,10.0,Calm,Calm,-,N/A,,Mostly Cloudy,0,2013-05-17 15:55:00
11:15 AM,70.2,59.5,69,29.95,10.0,Calm,Calm,-,N/A,,Mostly Cloudy,0,2013-05-17 16:15:00
11:35 AM,71.4,60.3,68,29.95,10.0,SE,3.5,-,N/A,,Overcast,130,2013-05-17 16:35:00
11:55 AM,72.3,59.7,64,29.95,10.0,Calm,Calm,-,N/A,,Overcast,0,2013-05-17 16:55:00
12:15 PM,72.7,60.4,65,29.94,10.0,Calm,Calm,-,N/A,,Overcast,0,2013-05-17 17:15:00
12:35 PM,73.2,60.8,65,29.94,10.0,Calm,Calm,-,N/A,,Overcast,0,2013-05-17 17:35:00
12:55 PM,73.8,60.6,63,29.93,10.0,Calm,Calm,-,N/A,,Overcast,0,2013-05-17 17:55:00
1:15 PM,74.8,61.0,62,29.93,10.0,Calm,Calm,-,N/A,,Overcast,0,2013-05-17 18:15:00
1:35 PM,75.6,60.6,60,29.92,10.0,Calm,Calm,-,N/A,,Overcast,0,2013-05-17 18:35:00
2:15 PM,77.2,60.3,56,29.92,10.0,SSE,4.6,-,N/A,,Overcast,150,2013-05-17 19:15:00
2:35 PM,76.6,59.7,56,29.92,10.0,Calm,Calm,-,N/A,,Overcast,0,2013-05-17 19:35:00
2:55 PM,76.3,59.4,56,29.92,10.0,WSW,3.5,-,N/A,,Overcast,250,2013-05-17 19:55:00
3:15 PM,77.0,59.0,54,29.91,10.0,SSW,3.5,-,N/A,,Overcast,200,2013-05-17 20:15:00
3:35 PM,77.0,59.9,55,29.91,10.0,ESE,4.6,-,N/A,,Overcast,120,2013-05-17 20:35:00
3:55 PM,78.8,59.9,52,29.91,10.0,Calm,Calm,-,N/A,,Mostly Cloudy,0,2013-05-17 20:55:00
4:15 PM,79.2,58.6,49,29.90,10.0,Calm,Calm,-,N/A,,Clear,0,2013-05-17 21:15:00
4:35 PM,77.4,57.9,51,29.90,10.0,Calm,Calm,-,N/A,,Mostly Cloudy,0,2013-05-17 21:35:00
4:55 PM,78.8,59.0,51,29.90,10.0,ESE,3.5,-,N/A,,Overcast,120,2013-05-17 21:55:00
5:15 PM,79.7,58.1,47,29.90,10.0,SE,4.6,-,N/A,,Mostly Cloudy,130,2013-05-17 22:15:00
5:35 PM,78.1,58.3,50,29.89,10.0,SE,6.9,-,N/A,,Scattered Clouds,140,2013-05-17 22:35:00
5:55 PM,79.7,59.9,51,29.89,10.0,SSE,4.6,-,N/A,,Scattered Clouds,150,2013-05-17 22:55:00
6:15 PM,79.5,59.2,50,29.89,10.0,SSE,4.6,-,N/A,,Mostly Cloudy,160,2013-05-17 23:15:00
6:35 PM,78.3,60.8,55,29.89,10.0,SSE,5.8,-,N/A,,Scattered Clouds,160,2013-05-17 23:35:00
6:55 PM,77.4,61.3,58,29.89,10.0,SE,4.6,-,N/A,,Scattered Clouds,140,2013-05-17 23:55:00
7:15 PM,77.0,61.7,59,29.89,10.0,ESE,4.6,-,N/A,,Mostly Cloudy,120,2013-05-18 00:15:00
7:35 PM,76.3,62.2,62,29.89,10.0,ESE,4.6,-,N/A,,Overcast,120,2013-05-18 00:35:00
7:55 PM,75.0,62.4,65,29.90,10.0,SE,4.6,-,N/A,,Overcast,130,2013-05-18 00:55:00
8:15 PM,73.4,62.2,68,29.90,10.0,SE,4.6,-,N/A,,Scattered Clouds,130,2013-05-18 01:15:00
8:35 PM,71.8,61.5,70,29.90,10.0,ESE,4.6,-,N/A,,Clear,120,2013-05-18 01:35:00
8:55 PM,70.9,61.2,71,29.91,10.0,ESE,3.5,-,N/A,,Scattered Clouds,120,2013-05-18 01:55:00
9:15 PM,70.2,61.3,74,29.91,10.0,East,5.8,-,N/A,,Mostly Cloudy,100,2013-05-18 02:15:00
9:35 PM,68.9,61.2,76,29.92,10.0,ESE,5.8,-,N/A,,Scattered Clouds,110,2013-05-18 02:35:00
9:55 PM,68.0,61.3,79,29.92,10.0,ESE,4.6,-,N/A,,Clear,120,2013-05-18 02:55:00
10:15 PM,68.0,61.2,79,29.93,10.0,ESE,5.8,-,N/A,,Clear,110,2013-05-18 03:15:00
10:35 PM,67.3,61.2,81,29.93,10.0,ESE,4.6,-,N/A,,Clear,110,2013-05-18 03:35:00
10:55 PM,66.9,61.2,82,29.93,10.0,ESE,5.8,-,N/A,,Clear,120,2013-05-18 03:55:00
11:15 PM,66.7,61.3,83,29.94,10.0,ESE,3.5,-,N/A,,Scattered Clouds,120,2013-05-18 04:15:00
11:35 PM,66.6,61.3,83,29.94,10.0,ESE,3.5,-,N/A,,Clear,120,2013-05-18 04:35:00
11:55 PM,66.0,61.5,85,29.94,10.0,ESE,5.8,-,N/A,,Clear,120,2013-05-18 04:55:00